TimeCST,TemperatureF,Dew PointF,Humidity,Sea Level PressureIn,VisibilityMPH,Wind Direction,Wind SpeedMPH,Gust SpeedMPH,PrecipitationIn,Events,Conditions,WindDirDegrees,DateUTC
12:13 AM,6.8,-0.4,72,30.13,10.0,West,3.5,-,N/A,,Overcast,270,2013-01-14 06:13:00
12:32 AM,6.8,-0.4,72,30.13,10.0,West,4.6,-,N/A,,Overcast,270,2013-01-14 06:32:00
12:53 AM,6.8,-0.4,72,30.14,10.0,West,4.6,-,N/A,,Overcast,270,2013-01-14 06:53:00
1:13 AM,6.8,-0.4,72,30.14,10.0,West,4.6,-,N/A,,Overcast,270,2013-01-14 07:13:00
1:32 AM,6.8,-0.4,72,30.15,10.0,West,4.6,-,N/A,,Overcast,280,2013-01-14 07:32:00
1:53 AM,6.8,-2.2,67,30.15,10.0,WNW,5.8,-,N/A,,Overcast,290,2013-01-14 07:53:00
2:12 AM,6.8,-2.2,67,30.16,10.0,Calm,Calm,-,N/A,,Overcast,0,2013-01-14 08:12:00
2:52 AM,6.8,-2.2,67,30.17,10.0,WNW,3.5,-,N/A,,Mostly Cloudy,290,2013-01-14 08:52:00
3:12 AM,5.0,-4.0,66,30.18,10.0,NW,6.9,-,N/A,,Clear,320,2013-01-14 09:12:00
3:33 AM,3.2,-5.8,66,30.19,10.0,NW,3.5,-,N/A,,Clear,320,2013-01-14 09:33:00
3:52 AM,1.4,-5.8,72,30.19,10.0,Calm,Calm,-,N/A,,Clear,0,2013-01-14 09:52:00
4:13 AM,1.4,-5.8,72,30.19,10.0,NW,4.6,-,N/A,,Clear,320,2013-01-14 10:13:00
4:32 AM,1.4,-7.6,66,30.19,10.0,Calm,Calm,-,N/A,,Clear,0,2013-01-14 10:32:00
4:53 AM,1.4,-7.6,66,30.19,10.0,Calm,Calm,-,N/A,,Clear,0,2013-01-14 10:53:00
5:13 AM,-0.4,-7.6,72,30.20,10.0,Calm,Calm,-,N/A,,Mostly Cloudy,0,2013-01-14 11:13:00
5:32 AM,1.4,-5.8,72,30.20,10.0,Calm,Calm,-,N/A,,Overcast,0,2013-01-14 11:32:00
6:13 AM,1.4,-5.8,72,30.22,10.0,Calm,Calm,-,N/A,,Overcast,0,2013-01-14 12:13:00
6:32 AM,1.4,-5.8,72,30.22,10.0,Calm,Calm,-,N/A,,Overcast,0,2013-01-14 12:32:00
6:52 AM,3.2,-5.8,66,30.23,10.0,Calm,Calm,-,N/A,,Overcast,0,2013-01-14 12:52:00
7:13 AM,1.4,-5.8,72,30.25,10.0,Calm,Calm,-,N/A,,Mostly Cloudy,0,2013-01-14 13:13:00
7:32 AM,1.4,-5.8,72,30.25,10.0,Calm,Calm,-,N/A,,Mostly Cloudy,0,2013-01-14 13:32:00
7:52 AM,1.4,-5.8,72,30.26,10.0,Calm,Calm,-,N/A,Snow,Light Snow,0,2013-01-14 13:52:00
8:01 AM,-0.4,-7.6,72,30.26,10.0,Calm,Calm,-,N/A,,Scattered Clouds,0,2013-01-14 14:01:00
8:33 AM,1.4,-5.8,72,30.27,10.0,Calm,Calm,-,N/A,,Clear,0,2013-01-14 14:33:00
8:53 AM,1.4,-5.8,72,30.27,10.0,WSW,3.5,-,N/A,,Clear,240,2013-01-14 14:53:00
9:12 AM,3.2,-5.8,66,30.28,10.0,WSW,5.8,-,N/A,,Clear,250,2013-01-14 15:12:00
9:33 AM,5.0,-5.8,61,30.28,10.0,West,5.8,-,N/A,,Clear,270,2013-01-14 15:33:00
9:53 AM,5.0,-5.8,61,30.29,10.0,West,4.6,-,N/A,,Clear,260,2013-01-14 15:53:00
10:12 AM,6.8,-5.8,56,30.29,10.0,WSW,4.6,-,N/A,,Clear,250,2013-01-14 16:12:00
10:32 AM,6.8,-5.8,56,30.29,10.0,West,6.9,-,N/A,,Clear,260,2013-01-14 16:32:00
10:53 AM,6.8,-5.8,56,30.30,10.0,WSW,5.8,-,N/A,,Clear,240,2013-01-14 16:53:00
11:12 AM,8.6,-4.0,57,30.29,10.0,WSW,4.6,-,N/A,,Clear,250,2013-01-14 17:12:00
11:32 AM,8.6,-4.0,57,30.29,10.0,SW,6.9,-,N/A,,Clear,230,2013-01-14 17:32:00
11:52 AM,8.6,-2.2,62,30.28,10.0,SW,9.2,-,N/A,,Clear,230,2013-01-14 17:52:00
12:12 PM,8.6,-4.0,57,30.28,10.0,WSW,6.9,-,N/A,,Clear,240,2013-01-14 18:12:00
12:33 PM,10.4,-2.2,57,30.27,10.0,WSW,5.8,-,N/A,,Clear,250,2013-01-14 18:33:00
12:52 PM,10.4,-2.2,57,30.27,10.0,SW,8.1,-,N/A,,Clear,230,2013-01-14 18:52:00
1:12 PM,10.4,-2.2,57,30.26,10.0,West,6.9,-,N/A,,Mostly Cloudy,270,2013-01-14 19:12:00
1:33 PM,12.2,-2.2,53,30.26,10.0,West,5.8,-,N/A,,Mostly Cloudy,260,2013-01-14 19:33:00
2:12 PM,12.2,-0.4,57,30.26,10.0,WSW,9.2,-,N/A,,Scattered Clouds,240,2013-01-14 20:12:00
2:52 PM,12.2,-2.2,53,30.26,10.0,SSW,4.6,-,N/A,,Clear,210,2013-01-14 20:52:00
3:13 PM,12.2,-2.2,53,30.26,10.0,Calm,Calm,-,N/A,,Clear,0,2013-01-14 21:13:00
3:32 PM,12.2,-2.2,53,30.26,10.0,SSW,3.5,-,N/A,,Clear,210,2013-01-14 21:32:00
3:52 PM,12.2,-2.2,53,30.25,10.0,SW,5.8,-,N/A,,Clear,220,2013-01-14 21:52:00
4:32 PM,12.2,-2.2,53,30.25,10.0,SW,4.6,-,N/A,,Clear,220,2013-01-14 22:32:00
4:52 PM,10.4,-2.2,57,30.25,10.0,SSW,3.5,-,N/A,,Clear,200,2013-01-14 22:52:00
5:12 PM,8.6,-2.2,62,30.25,10.0,SSE,6.9,-,N/A,,Clear,160,2013-01-14 23:12:00
5:32 PM,8.6,-0.4,67,30.26,10.0,South,6.9,-,N/A,,Clear,170,2013-01-14 23:32:00
5:53 PM,8.6,-0.4,67,30.25,10.0,South,5.8,-,N/A,,Scattered Clouds,170,2013-01-14 23:53:00
6:12 PM,8.6,-0.4,67,30.25,10.0,South,5.8,-,N/A,,Mostly Cloudy,170,2013-01-15 00:12:00
6:32 PM,8.6,-0.4,67,30.25,10.0,South,6.9,-,N/A,,Scattered Clouds,190,2013-01-15 00:32:00
6:53 PM,8.6,-0.4,67,30.25,10.0,SSW,6.9,-,N/A,,Mostly Cloudy,200,2013-01-15 00:53:00
7:12 PM,8.6,-0.4,67,30.25,10.0,SSW,5.8,-,N/A,,Overcast,200,2013-01-15 01:12:00
7:32 PM,8.6,-2.2,62,30.25,10.0,South,5.8,-,N/A,,Overcast,190,2013-01-15 01:32:00
7:53 PM,8.6,-0.4,67,30.24,10.0,South,5.8,-,N/A,,Overcast,170,2013-01-15 01:53:00
8:12 PM,8.6,-0.4,67,30.24,10.0,South,6.9,-,N/A,,Overcast,190,2013-01-15 02:12:00
8:32 PM,8.6,-0.4,67,30.24,10.0,SSW,5.8,-,N/A,,Overcast,200,2013-01-15 02:32:00
8:53 PM,8.6,-0.4,67,30.24,10.0,SSW,6.9,-,N/A,,Overcast,200,2013-01-15 02:53:00
9:12 PM,8.6,-0.4,67,30.23,10.0,South,5.8,-,N/A,,Overcast,180,2013-01-15 03:12:00
9:32 PM,8.6,-0.4,67,30.23,10.0,South,5.8,-,N/A,,Overcast,190,2013-01-15 03:32:00
10:12 PM,8.6,-0.4,67,30.21,10.0,South,3.5,-,N/A,,Overcast,180,2013-01-15 04:12:00
10:33 PM,8.6,-0.4,67,30.20,10.0,SSE,5.8,-,N/A,,Overcast,150,2013-01-15 04:33:00
10:52 PM,10.4,-0.4,62,30.20,10.0,South,5.8,-,N/A,,Overcast,170,2013-01-15 04:52:00
11:12 PM,10.4,-0.4,62,30.19,10.0,South,5.8,-,N/A,,Overcast,170,2013-01-15 05:12:00
11:33 PM,10.4,1.4,67,30.19,10.0,South,3.5,-,N/A,,Overcast,170,2013-01-15 05:33:00
11:52 PM,10.4,1.4,67,30.18,7.0,SSE,5.8,-,N/A,Snow,Light Snow,160,2013-01-15 05:52:00